Location: Fertingen
(48.5686°N, 10.7878°E)
Time: 20:51:37
(UTC+00:00)

Daily predictions for brighter satellites

Satellite Brightness Start Highest point End
(mag) Time Altitude Azimuth Time Altitude Azimuth Time Altitude Azimuth
ARGOS 3.3 18:22:02 10° SE 18:27:17 56° ENE 18:32:33 10° N
SL-16 R/B 3.8 18:23:56 10° WSW 18:29:13 39° NW 18:34:32 10° NNE
Cosmos 1726 Rocket 4.4 18:25:50 10° SSE 18:29:41 30° E 18:33:34 10° NNE
IRIDIUM 103 4.4 18:24:59 10° N 18:30:13 64° E 18:35:22 10° SSE
FREGAT/IRIS 2.6 18:27:57 10° SSE 18:30:35 48° ENE 18:33:14 10° N
STARLINK-1244 4.5 18:28:10 10° WNW 18:32:10 44° N 18:36:10 10° ENE
SJ-11-01 4.4 18:28:03 10° SSE 18:32:46 87° WSW 18:37:33 10° NNW
Resurs 01 Rocket 3.0 18:31:34 10° ESE 18:34:54 22° ENE 18:38:15 10° NNE
Intercosmos 24 Rocket 4.4 18:30:15 10° S 18:35:03 78° E 18:38:46 10° NNE
Cosmos 1825 Rocket 3.6 18:31:09 10° N 18:35:31 60° ENE 18:39:50 10° SSE
ERBS 4.2 18:32:59 10° NW 18:35:42 22° NNE 18:38:25 10° ENE
Nadezhda 1 Rocket 4.4 18:30:25 10° SSE 18:36:20 42° E 18:42:13 10° NNE
Cosmos 2154 Rocket 4.4 18:30:47 10° N 18:36:55 47° ENE 18:42:59 10° SSE
STARLINK-1138 4.5 18:33:11 10° WNW 18:37:11 45° N 18:41:11 10° ENE
USA 186 1.7 18:35:42 10° SSE 18:38:59 67° ENE 18:42:09 10° N
Cosmos 921 Rocket 4.0 18:37:48 10° N 18:41:27 28° ENE 18:44:56 11° ESE
STARLINK-1143 4.4 18:38:10 10° WNW 18:42:10 45° N 18:46:10 10° E
GEOS 3 Rocket 4.4 18:37:38 10° SSE 18:42:38 52° SW 18:47:46 10° NW
Aureole 3 4.4 18:38:46 10° SSW 18:43:40 79° W 18:50:00 10° N
ARGOS Delta rocket 4.5 18:38:33 10° S 18:43:53 73° W 18:49:23 10° NNW
Cosmos 407 Rocket 4.0 18:40:06 10° SSE 18:44:46 36° ESE 18:49:26 10° NE
STARLINK-1233 3.6 18:41:52 10° WNW 18:44:55 46° NNE 18:47:47 11° E
STARLINK-1234 3.3 18:41:57 10° WNW 18:44:57 52° NNE 18:47:39 12° E
STARLINK-1212 3.6 18:42:20 10° WNW 18:45:22 46° NNE 18:48:13 11° E
STARLINK-1105 3.6 18:42:47 10° WNW 18:45:50 46° NNE 18:48:40 12° E
STARLINK-1209 3.2 18:43:08 10° WNW 18:46:07 54° NNE 18:48:45 13° E
STARLINK-1206 3.6 18:43:15 10° WNW 18:46:18 46° NNE 18:49:04 12° E
STARLINK-1247 3.6 18:43:42 10° WNW 18:46:44 46° NNE 18:49:30 12° E
STARLINK-1227 3.6 18:44:07 10° WNW 18:47:11 47° NNE 18:49:57 12° E
STARLINK-1241 4.4 18:43:12 10° WNW 18:47:13 46° N 18:51:13 10° E
STARLINK-1218 3.5 18:44:37 10° WNW 18:47:39 47° NNE 18:50:22 12° E
STARLINK-1226 3.5 18:45:03 10° WNW 18:48:06 47° NNE 18:50:49 12° E
Cosmos 2228 3.1 18:44:08 10° S 18:48:19 53° E 18:52:33 10° NNE
IRIDIUM 106 4.4 18:43:14 10° N 18:48:30 90° NNE 18:53:43 10° S
STARLINK-1254 3.5 18:45:29 10° WNW 18:48:33 47° NNE 18:51:15 12° E
STARLINK-1215 3.5 18:45:58 10° WNW 18:49:01 47° NNE 18:51:40 13° E
Cosmos 1758 Rocket 3.6 18:44:58 10° N 18:49:19 83° W 18:53:37 10° S
STARLINK-1231 3.5 18:46:25 10° WNW 18:49:27 47° NNE 18:52:06 13° E
SPOT 3 Rocket 3.8 18:45:17 10° SE 18:50:20 53° ENE 18:55:23 10° N
STARLINK-1232 3.5 18:47:20 10° WNW 18:50:23 48° NNE 18:52:59 13° E
STARLINK-1217 3.5 18:47:46 10° WNW 18:50:49 48° NNE 18:53:24 13° E
STARLINK-1208 3.5 18:48:10 10° WNW 18:51:15 49° NNE 18:53:51 13° E
Cosmos 1461 3.3 18:47:04 10° NNW 18:51:31 57° NE 18:55:35 13° SE
STARLINK-1229 3.5 18:48:39 10° WNW 18:51:42 48° NNE 18:54:16 14° E
Cosmos 1603 3.9 18:46:17 10° SSW 18:51:55 77° WNW 18:57:33 10° NNE
STARLINK-1271 3.5 18:49:07 10° WNW 18:52:10 49° NNE 18:54:43 14° E
STARLINK-1239 4.4 18:48:09 10° WNW 18:52:11 46° N 18:56:09 10° E
STARLINK-1270 3.5 18:49:35 10° WNW 18:52:38 49° NNE 18:55:09 14° E
STARLINK-1154 3.5 18:50:01 10° WNW 18:53:04 49° NNE 18:55:34 14° E
Aureole 1 Rocket 4.3 18:46:00 10° S 18:53:13 52° ESE 18:58:56 10° NNE
STARLINK-1197 3.4 18:50:55 10° WNW 18:53:59 50° NNE 18:56:26 14° E
STARLINK-1189 3.4 18:51:23 10° WNW 18:54:26 50° NNE 18:56:52 15° E
STARLINK-1198 3.4 18:51:49 10° WNW 18:54:53 50° NNE 18:57:18 15° E
STARLINK-1188 3.4 18:52:16 10° WNW 18:55:21 50° NNE 18:57:44 15° E
STARLINK-1235 3.2 18:52:55 10° WNW 18:56:01 58° NNE 18:58:23 16° E
STARLINK-1187 3.3 18:53:20 10° WNW 18:56:28 55° NNE 18:58:50 16° E
SJ-6B 2.9 18:52:43 10° SSE 18:56:51 83° ENE 19:01:00 10° NNW
STARLINK-1240 4.4 18:53:10 10° WNW 18:57:11 47° N 19:00:57 12° E
Cosmos 1953 Rocket 3.6 18:52:45 10° N 18:57:14 69° E 19:01:42 10° SSE
STARLINK-1199 3.4 18:54:12 10° WNW 18:57:18 52° NNE 18:59:39 16° E
STARLINK-29 4.3 18:54:58 10° S 18:57:29 21° SE 18:58:47 17° ESE
STARLINK-1191 3.4 18:54:40 10° WNW 18:57:45 52° NNE 19:00:06 16° E
STARLINK-1210 3.4 18:55:07 10° WNW 18:58:12 52° NNE 19:00:31 16° E
STARLINK-1221 3.4 18:55:34 10° WNW 18:58:40 52° NNE 19:00:58 16° E
Cosmos 2074 Rocket 4.1 18:52:25 10° N 18:58:44 83° W 19:05:02 10° S
STARLINK-1219 3.4 18:56:00 10° WNW 18:59:07 53° NNE 19:01:23 16° E
Cosmos 1606 Rocket 3.5 18:54:54 10° S 18:59:18 73° E 19:03:47 10° NNE
STARLINK-60 3.4 18:56:11 10° SW 18:59:19 43° SE 19:02:13 12° ENE
STARLINK-1222 3.4 18:56:28 10° WNW 18:59:34 53° NNE 19:01:49 17° E
ATLAS 5 CENTAUR R/B 2.1 18:55:58 10° S 18:59:42 33° ESE 19:03:50 10° NE
STARLINK-1211 3.3 18:56:56 10° WNW 19:00:01 53° NNE 19:02:15 17° E
STARLINK-1214 3.3 18:57:22 10° WNW 19:00:28 53° NNE 19:02:41 17° E
STARLINK-1245 3.3 18:57:52 10° WNW 19:00:56 53° NNE 19:03:07 17° E
STARLINK-1238 3.3 18:58:16 10° WNW 19:01:23 54° NNE 19:03:34 17° E
STARLINK-1216 4.3 18:58:10 10° WNW 19:02:12 48° N 19:05:45 13° E
STARLINK-1205 3.3 18:59:13 10° WNW 19:02:18 54° NNE 19:04:25 18° E
STARLINK-1204 3.3 18:59:39 10° WNW 19:02:44 54° NNE 19:04:50 18° E
Meteor 1-16 Rocket 4.2 18:58:27 10° S 19:03:53 90° ESE 19:09:30 10° NNE
Cosmos 1818 3.6 18:59:16 10° SW 19:04:43 88° NW 19:10:12 10° NE
STARLINK-1237 4.3 19:03:09 10° WNW 19:07:11 49° N 19:10:31 14° E
Abrixas rocket 1.9 19:06:57 10° W 19:09:55 77° S 19:11:30 24° ESE
Cosmos 1943 Rocket 4.4 19:07:00 10° NW 19:11:18 23° WSW 19:15:36 10° SSW
STARLINK-1202 4.2 19:08:09 10° WNW 19:12:12 50° NNE 19:15:18 16° E
Cosmos 2058 4.4 19:10:26 10° NNE 19:13:25 19° ENE 19:14:34 17° E
NOSS 3-4 (A) 3.9 19:06:39 10° NW 19:13:37 81° SW 19:20:34 13° SSE
NOSS 3-4 (C) 3.9 19:06:45 10° NW 19:13:44 82° SW 19:20:39 13° SE
Cosmos 1610 Rocket 4.5 19:09:08 10° N 19:15:22 88° E 19:21:30 10° S
Cosmos 1300 3.5 19:17:23 21° SE 19:19:07 31° E 19:22:32 10° NNE
FALCON 9 DEB 4.0 19:16:14 10° SSW 19:19:20 30° SE 19:20:15 26° ESE
SL-4 R/B 1.4 19:16:39 10° WSW 19:20:03 86° SSE 19:22:39 17° ENE
Cosmos 2369 Rocket 4.2 19:16:20 10° NW 19:20:58 26° WSW 19:25:34 10° SSW
STARLINK-1246 4.1 19:18:08 10° WNW 19:22:13 53° NNE 19:24:53 20° E
MOS 1 Rocket 3.7 19:17:08 10° NNE 19:22:27 55° E 19:27:46 10° S
STARLINK-1203 4.1 19:18:46 10° WNW 19:22:55 56° NNE 19:25:34 21° E
Cosmos 1340 Rocket 2.7 19:19:40 10° S 19:23:41 67° E 19:27:42 10° NNE
STARLINK-1201 3.1 19:20:45 10° WNW 19:24:01 69° NNE 19:25:27 30° E
CZ-2C R/B 3.7 19:20:07 10° NNE 19:24:52 80° ESE 19:29:30 10° SSW
Cosmos 1703 4.1 19:21:36 10° NNW 19:25:27 51° W 19:29:19 10° S
H-2A R/B 3.3 19:21:26 10° SSW 19:26:20 42° W 19:31:09 10° NNW
STARLINK-67 2.8 19:24:05 10° WNW 19:26:36 51° SSW 19:27:10 40° SSE
STARLINK-1224 4.1 19:23:06 10° WNW 19:27:12 55° NNE 19:29:39 22° E
CZ-2C R/B 4.1 19:24:30 10° SSW 19:29:06 41° W 19:33:37 10° NNW
Cosmos 1295 Rocket 4.5 19:24:32 10° N 19:30:53 86° E 19:37:14 10° S
STARLINK-1225 4.0 19:28:07 10° WNW 19:32:12 57° NNE 19:34:27 25° E
MetOp-B 4.4 19:33:00 23° SE 19:36:07 52° ENE 19:41:18 10° N
SAR-Lupe-2 4.2 19:33:29 10° NNE 19:36:47 33° E 19:36:47 33° E
STARLINK-1230 4.0 19:33:06 10° WNW 19:37:13 59° NNE 19:39:14 28° E
Cosmos 1908 4.1 19:33:37 10° SSW 19:37:24 52° WNW 19:41:14 10° N
STARLINK-52 3.6 19:34:51 10° SW 19:37:28 36° SSE 19:37:28 36° SSE
Resurs 1-3 3.8 19:37:17 14° S 19:41:04 69° WSW 19:45:27 10° NNW
USA 234 3.7 19:35:40 10° ENE 19:41:40 37° SE 19:47:37 10° SSW
STARLINK-1243 3.9 19:38:04 10° WNW 19:42:11 61° NNE 19:44:01 31° E
Iridium 4 Rocket 3.7 19:40:42 10° NNE 19:44:31 32° E 19:44:57 31° E
ATLAS 2AS CENTAUR R/B 3.4 19:38:28 10° NW 19:45:47 53° WSW 19:51:22 15° S
STARLINK-1228 2.8 19:43:54 10° WNW 19:46:45 57° SSW 19:46:55 55° SSW
STARLINK-1236 3.8 19:43:03 10° WNW 19:47:11 64° NNE 19:48:47 34° E
CZ-4C R/B 4.0 19:45:33 10° NW 19:51:27 32° NNE 19:56:48 15° E
Cosmos 1140 Rocket 3.5 19:47:13 10° SSW 19:52:26 85° WNW 19:57:37 10° NNE
Cosmos 2341 Rocket 4.0 19:48:25 10° N 19:54:50 87° W 19:59:56 17° S
STARLINK-1269 3.7 19:53:00 10° WNW 19:57:09 69° NNE 19:58:20 43° E
Cosmos 1190 Rocket 4.4 19:53:37 10° SSW 19:58:54 68° WNW 20:04:12 10° NNE
Spot 2 Rocket 3.5 19:56:54 34° SE 19:59:04 68° ENE 20:04:09 10° N
Cosmos 2058 Rocket 3.8 19:54:55 10° SSW 19:59:20 54° WNW 20:03:47 10° N
DMSP B5D2-2 4.3 19:54:56 10° N 20:00:08 71° WNW 20:05:20 10° SSW
Landsat 7 4.1 19:58:57 39° ESE 20:00:14 51° ENE 20:04:52 10° N
CZ-2C R/B 2.6 19:55:38 10° NNE 20:00:49 80° WNW 20:06:02 10° SSW
COSMOS 2455 3.0 19:55:57 10° NW 20:01:57 67° WSW 20:05:11 28° SSE
Cosmos 1697 Rocket 3.9 19:57:09 10° NNW 20:02:07 30° NE 20:04:03 24° E
STARLINK-1200 3.7 19:57:59 10° WNW 20:02:08 73° NNE 20:03:07 49° E
Cosmos 1408 4.1 19:59:58 10° NNE 20:02:18 23° NE 20:02:18 23° NE
CARTOSAT-1 4.4 20:06:16 33° ENE 20:06:27 33° ENE 20:10:19 10° N
STARLINK-1192 3.6 20:02:58 10° WNW 20:07:07 76° NNE 20:07:55 56° E
IGS 5A 3.6 20:06:53 51° E 20:07:19 54° ENE 20:11:24 10° N
Iridium 2 3.5 20:07:49 66° SSE 20:08:16 77° E 20:12:06 10° N
Cosmos 2218 Rocket 3.9 20:02:59 10° N 20:09:13 78° E 20:12:18 32° SSE
Resurs 01 Rocket 2.4 20:08:30 22° SSW 20:11:06 49° W 20:15:24 10° NNW
STARLINK-1244 3.5 20:07:56 10° WNW 20:12:06 80° NNE 20:12:41 64° E
ERBS 2.5 20:09:11 10° NW 20:12:22 62° NNE 20:12:22 62° NNE
BREEZE-M DEB (TANK) 2.7 20:12:49 10° W 20:15:11 40° WNW 20:15:11 40° WNW
ATLAS CENTAUR R/B 2.9 20:13:10 10° NNW 20:16:17 22° NE 20:16:45 21° NE
Cosmos 468 Rocket 3.9 20:11:38 10° NNW 20:16:49 71° ENE 20:18:01 51° SE
STARLINK-1138 3.5 20:12:55 10° WNW 20:17:05 84° NNE 20:17:28 72° E
Cosmos 921 Rocket 4.4 20:16:01 10° NW 20:19:44 32° W 20:21:45 21° SSW
STARLINK-1233 4.2 20:17:45 10° WNW 20:19:56 34° WSW 20:19:56 34° WSW
Cosmos 1570 Rocket 4.4 20:15:49 10° NNW 20:21:00 47° ENE 20:21:55 43° E
STARLINK-1212 4.3 20:18:12 10° WNW 20:20:22 34° WSW 20:20:22 34° WSW
Meteor 2-12 Rocket 4.3 20:15:23 10° N 20:21:31 73° ENE 20:23:32 44° SSE
STARLINK-1105 4.3 20:18:39 10° WNW 20:20:49 34° WSW 20:20:49 34° WSW
STARLINK-1143 3.4 20:17:53 10° WNW 20:22:03 88° NNE 20:22:14 82° ESE
STARLINK-1206 4.4 20:19:08 10° WNW 20:21:13 32° W 20:21:13 32° W
STARLINK-1247 4.4 20:19:35 10° WNW 20:21:39 32° W 20:21:39 32° W
STARLINK-1227 4.4 20:20:00 10° WNW 20:22:06 32° WSW 20:22:06 32° WSW
STARLINK-1218 4.4 20:20:30 10° WNW 20:22:31 31° W 20:22:31 31° W
STARLINK-1226 4.4 20:20:56 10° WNW 20:22:58 31° W 20:22:58 31° W
USA 245 4.4 20:21:28 37° S 20:23:58 84° WSW 20:30:25 10° NNW
STARLINK-1254 4.5 20:21:21 10° WNW 20:23:24 31° W 20:23:24 31° W
SL-8 Rocket 4.2 20:19:16 10° NNW 20:25:35 71° W 20:29:12 27° S
Cosmos 2181 Rocket 4.0 20:20:34 15° SSW 20:25:52 81° W 20:32:05 10° N
STARLINK-1241 3.5 20:22:54 10° WNW 20:27:03 87° SW 20:27:03 87° SW
Cosmos 676 Rocket 4.4 20:22:26 10° SW 20:27:41 63° WNW 20:32:55 10° NNE
ERS-1 Rocket 3.0 20:27:20 56° ESE 20:28:01 63° ENE 20:33:00 10° N
Cosmos 864 Rocket 4.4 20:21:55 10° N 20:28:10 86° W 20:30:44 38° S
Cosmos 1455 3.9 20:30:11 23° NE 20:30:11 23° NE 20:31:55 10° NNE
Cosmos 1656 3.7 20:24:05 10° NNW 20:29:47 68° ENE 20:30:57 54° ESE
Cosmos 1812 Rocket 3.5 20:29:45 64° SSW 20:30:23 84° W 20:34:45 10° N
Cosmos 1980 Rocket 3.4 20:26:30 10° NNW 20:31:19 28° NE 20:32:34 26° ENE
STARLINK-1239 3.6 20:27:51 10° WNW 20:31:48 78° W 20:31:48 78° W
Cosmos 1892 2.8 20:28:22 10° N 20:32:00 76° NNW 20:32:00 76° NNW
SPOT 5 2.8 20:34:13 55° NE 20:34:13 55° NE 20:38:12 10° N
STARLINK-60 4.4 20:32:29 10° W 20:34:55 39° WNW 20:34:55 39° WNW
STARLINK-1240 3.7 20:32:51 10° WNW 20:36:36 69° W 20:36:36 69° W
Cosmos 220 Rocket 4.4 20:33:34 10° NNW 20:37:48 53° WSW 20:38:14 51° SW
Cosmos 2366 rocket 4.1 20:32:21 10° NNW 20:38:28 71° W 20:41:06 36° SSW
STARLINK-1216 3.9 20:37:50 10° WNW 20:41:24 61° W 20:41:24 61° W
Terra 2.1 20:42:27 52° ENE 20:42:27 52° ENE 20:46:54 10° N
Cosmos 1825 3.5 20:38:40 10° N 20:41:04 33° NNE 20:41:04 33° NNE
ATLAS 5 CENTAUR R/B 2.9 20:40:09 10° WSW 20:44:13 40° NW 20:48:50 10° NNE
STARLINK-1237 4.2 20:42:48 10° WNW 20:46:09 53° W 20:46:09 53° W
Cosmos 2058 3.7 20:46:39 10° NNW 20:50:34 43° W 20:50:47 43° WSW
Cosmos 2151 3.4 20:46:25 10° N 20:49:51 57° N 20:49:51 57° N
Nadezhda 3 Rocket 4.0 20:50:21 56° ESE 20:50:47 57° E 20:56:55 10° NNE
STARLINK-1202 4.4 20:47:48 10° WNW 20:50:57 47° W 20:50:57 47° W
SPOT 1/Viking Rocket 3.8 20:52:37 54° SSW 20:53:32 64° WSW 20:58:45 10° NNW
RESURS DK-1 2.9 20:49:57 10° NNW 20:53:17 54° N 20:53:17 54° N
Cosmos 1741 Rocket 3.9 20:54:59 74° SSW 20:55:31 89° ESE 21:00:54 10° NNE
Cosmos 2278 4.1 20:53:10 10° NNW 20:58:39 48° NE 20:58:59 48° ENE
SL-4 R/B 3.6 20:56:26 10° WNW 20:58:16 28° WNW 20:58:16 28° WNW
Cosmos 2208 Rocket 3.9 20:55:39 10° NNW 21:00:47 79° NE 21:00:47 79° NE
Cosmos 2082 Rocket 3.9 21:03:59 19° ENE 21:03:59 19° ENE 21:05:54 10° NE
Cosmos 1763 Rocket 3.9 21:05:18 10° NNW 21:10:20 51° WSW 21:10:29 51° WSW
Cosmos 1833 Rocket 3.5 21:13:44 38° NE 21:13:44 38° NE 21:17:21 10° NE
Cosmos 489 Rocket 4.4 21:07:48 10° NNW 21:14:00 72° WSW 21:14:41 65° SSW
Cosmos 2239 Rocket 4.3 21:09:28 10° N 21:15:46 84° E 21:16:11 78° SE
BREEZE M DEB (TANK) 3.8 21:13:34 10° WSW 21:18:00 86° SSE 21:34:12 10° ENE
Cosmos 1814 Rocket 4.1 21:14:26 10° NNW 21:19:27 77° NW 21:19:27 77° NW
Cosmos 540 Rocket 3.6 21:14:40 10° NNW 21:19:20 71° NW 21:19:20 71° NW
Cosmos 1821 Rocket 3.9 21:13:28 10° N 21:19:52 82° W 21:20:35 71° SSW
Cosmos-2242 4.0 21:21:21 45° NNW 21:21:21 45° NNW 21:24:38 10° N
COSMOS 2406 3.2 21:20:59 78° W 21:21:14 81° WNW 21:26:59 10° NNE
Meteor 2-10 Rocket 3.7 21:23:21 69° WNW 21:23:21 69° WNW 21:28:45 10° N
Cosmos 1934 Rocket 3.9 21:18:25 10° N 21:24:38 71° ENE 21:24:38 71° ENE
USA 234 3.2 21:18:30 10° NE 21:25:04 82° NNW 21:31:37 10° WSW
Cosmos 1605 Rocket 4.2 21:33:00 10° N 21:38:36 59° NE 21:38:36 59° NE
Cosmos 2369 4.0 21:35:06 10° NNW 21:40:06 61° WNW 21:40:06 61° WNW
CZ-4C R/B 2.8 21:33:57 10° NW 21:41:02 79° NE 21:42:00 69° ESE
ASTEX 1 4.1 21:44:36 53° NNW 21:44:36 53° NNW 21:48:26 10° N
Cosmos 1697 Rocket 3.2 21:40:53 10° NW 21:45:47 54° W 21:45:47 54° W
Cosmos 841 Rocket 4.4 21:42:37 10° NNW 21:46:53 42° W 21:46:53 42° W
Mayak 0.7 21:45:59 10° N 21:47:46 25° N 21:47:46 25° N
ATLAS CENTAUR R/B 3.8 21:51:45 10° NW 21:52:56 19° NW 21:52:56 19° NW
SL-16 R/B 3.1 21:59:24 10° NNW 22:04:14 40° NE 22:04:14 40° NE
Cosmos 2360 Rocket 3.8 22:03:29 10° N 22:08:01 24° NE 22:08:30 24° NE
Meteor 2-3 Rocket 4.5 22:06:13 10° NNW 22:11:01 47° WNW 22:11:01 47° WNW
Cosmos 2322 Rocket 3.2 22:07:52 10° NNW 22:12:34 39° NE 22:12:34 39° NE
Cosmos 1980 Rocket 3.0 22:10:12 10° NNW 22:14:20 47° WNW 22:14:20 47° WNW
Terra 3.9 22:21:20 20° WNW 22:21:20 20° WNW 22:23:57 10° NW
Cosmos 2082 Rocket 3.1 22:45:47 46° NNW 22:45:47 46° NNW 22:50:25 10° NNE
Cosmos 1459 Rocket 4.4 22:44:26 10° N 22:49:41 61° NNE 22:49:41 61° NNE
Cosmos 1833 Rocket 4.2 22:55:21 30° WNW 22:56:05 31° NW 23:01:04 10° NNE
Cosmos 2344 4.5 22:47:24 10° NW 22:56:59 64° WSW 22:58:33 60° SSW
Cosmos 1727 Rocket 4.4 22:58:39 59° NNW 22:58:39 59° NNW 23:03:58 10° N
Cosmos 2219 Rocket 3.9 23:01:57 10° N 23:06:30 25° NE 23:07:19 24° ENE
USA 234 4.1 23:01:33 10° ENE 23:07:43 47° NNW 23:13:54 10° W
Cosmos 2016 Rocket 4.4 23:01:36 10° N 23:06:48 59° NNE 23:06:48 59° NNE
Cosmos 1802 Rocket 4.4 23:03:05 10° N 23:07:59 58° N 23:07:59 58° N
Mayak 1.8 23:24:07 10° NW 23:24:21 10° NW 23:24:21 10° NW
COSMOS 2428 4.1 23:22:36 10° NNW 23:27:40 31° NE 23:28:04 31° NE
CZ-4C R/B 4.2 23:22:59 10° NW 23:27:10 27° W 23:27:10 27° W
SJ 16-02 4.3 23:37:59 10° ENE 23:37:59 10° ENE 23:38:02 10° ENE
Resurs 1-4 Rocket 4.4 23:35:46 10° NE 23:37:53 15° ENE 23:37:53 15° ENE
MOS 1-B Rocket 4.4 23:40:58 10° N 23:46:30 62° NW 23:46:30 62° NW
SL-16 R/B 3.9 23:43:40 10° NW 23:46:05 23° WNW 23:46:05 23° WNW
Cosmos 2360 Rocket 3.4 23:47:00 10° NNW 23:50:15 36° NW 23:50:15 36° NW
